Weather History for San Jose, CA

Change the Weather History Date:

Friday, March 1, 2013

  Actual Average Record
Temperature  
Mean Temperature 58 °F 56 °F  
Max Temperature 70 °F 66 °F 79 °F (1895)
Min Temperature 45 °F 47 °F 26 °F (1896)
Degree Days  
Heating Degree Days 7 9  
Month to date heating degree days 7 9  
Since 1 July heating degree days 1613 1472  
Cooling Degree Days 0 0  
Month to date cooling degree days 0 0  
Year to date cooling degree days 0 0  
Growing Degree Days 7 (Base 50)    
Moisture  
Dew Point 48 °F    
Average Humidity 77    
Maximum Humidity 100    
Minimum Humidity 53    
Precipitation  
Precipitation 0.00 in 0.11 in 1.17 in (1983)
Month to date precipitation 0.00 0.11  
Year to date precipitation 0.81 6.42  
Since 1 July precipitation 8.00 11.43  
Sea Level Pressure  
Sea Level Pressure 30.36 in    
Wind  
Wind Speed 3 mph (WNW)    
Max Wind Speed 12 mph    
Max Gust Speed 14 mph    
Visibility 6 miles    
Events Fog    
T = Trace of Precipitation, MM = Missing Value Source: NWS Daily Summary

Daily Weather History Graph

Daily Weather History Graph

Search for Another Location

Airport:

Trip Planner

Search our weather history database for the weather conditions in past years. The results will help you decide how hot, cold, wet, or windy it might be!

Date:

Astronomy

Mar. 01, 2013 Rise Set
Actual Time 6:38 AM PST 6:02 PM PST
Civil Twilight 6:12 AM PST 6:28 PM PST
Nautical Twilight 5:42 AM PST 6:58 PM PST
Astronomical Twilight 5:11 AM PST 7:28 PM PST
Moon 10:34 PM PST 8:35 AM PST
Length of Visible Light 12h 15m
Length of Day
11h 23m
Waning Gibbous, 82% of the Moon is Illuminated
Mar 1
Waning Gibbous
Mar 4
Last Quarter
Mar 11
New
Mar 19
First Quarter
Mar 27
Full

Hourly Weather History & Observations

Time (PST) Temp. Windchill Dew Point Humidity Pressure Visibility Wind Dir Wind Speed Gust Speed Precip Events Conditions
12:53 AM 50.0 °F - 48.2 °F 94% 30.44 in 10.0 mi Calm Calm - N/A   Clear
1:53 AM 48.9 °F - 46.9 °F 93% 30.43 in 10.0 mi Calm Calm - N/A   Clear
2:53 AM 48.0 °F - 46.0 °F 93% 30.43 in 10.0 mi Calm Calm - N/A   Clear
3:53 AM 48.2 °F - 44.6 °F 87% 30.43 in 10.0 mi Calm Calm - N/A   Clear
4:50 AM 46.4 °F 45.2 °F 44.6 °F 93% 30.43 in 5.0 mi WSW 3.5 mph - N/A   Scattered Clouds
4:53 AM 46.0 °F 44.8 °F 45.0 °F 96% 30.43 in 4.0 mi SW 3.5 mph - N/A   Scattered Clouds
5:00 AM 44.6 °F 43.1 °F 44.6 °F 100% 30.43 in 2.5 mi WSW 3.5 mph - N/A   Mostly Cloudy
5:08 AM 46.4 °F - 46.4 °F 100% 30.43 in 0.2 mi Calm Calm - N/A Fog Fog
5:18 AM 46.4 °F - 46.4 °F 100% 30.42 in 0.2 mi Calm Calm - N/A Fog Fog
5:53 AM 46.9 °F - 46.9 °F 100% 30.42 in 0.2 mi Calm Calm - N/A Fog Fog
6:53 AM 46.0 °F - 46.0 °F 100% 30.41 in 0.2 mi Calm Calm - N/A Fog Fog
7:53 AM 48.0 °F - 48.0 °F 100% 30.40 in 0.2 mi South 3.5 mph - N/A Fog Fog
8:11 AM 46.4 °F - 46.4 °F 100% 30.40 in 0.2 mi Calm Calm - N/A Fog Fog
8:16 AM 46.4 °F - 46.4 °F 100% 30.40 in 0.5 mi Calm Calm - N/A Fog Fog
8:24 AM 48.2 °F - 48.2 °F 100% 30.39 in 1.0 mi Calm Calm - N/A   Mostly Cloudy
8:28 AM 48.2 °F - 48.2 °F 100% 30.39 in 2.0 mi Calm Calm - N/A   Scattered Clouds
8:33 AM 48.2 °F - 48.2 °F 100% 30.39 in 3.0 mi Calm Calm - N/A   Partly Cloudy
8:53 AM 48.9 °F - 48.9 °F 100% 30.39 in 6.0 mi Calm Calm - N/A   Partly Cloudy
9:53 AM 53.6 °F - 50.0 °F 88% 30.39 in 5.0 mi NNE 3.5 mph - N/A   Partly Cloudy
10:53 AM 57.0 °F - 52.0 °F 83% 30.38 in 7.0 mi NW 4.6 mph - N/A   Partly Cloudy
11:53 AM 60.1 °F - 52.0 °F 75% 30.36 in 10.0 mi NW 4.6 mph - N/A   Clear
12:53 PM 64.4 °F - 51.8 °F 64% 30.32 in 10.0 mi WNW 6.9 mph - N/A   Clear
1:53 PM 66.0 °F - 51.1 °F 59% 30.29 in 10.0 mi WNW 6.9 mph - N/A   Clear
2:53 PM 69.1 °F - 51.1 °F 53% 30.26 in 10.0 mi NW 5.8 mph - N/A   Clear
3:53 PM 70.0 °F - 51.1 °F 51% 30.26 in 10.0 mi WNW 8.1 mph - N/A   Clear
4:53 PM 66.9 °F - 50.0 °F 54% 30.24 in 10.0 mi WNW 11.5 mph - N/A   Clear
5:53 PM 62.6 °F - 50.0 °F 63% 30.24 in 10.0 mi WNW 8.1 mph - N/A   Clear
6:53 PM 62.1 °F - 50.0 °F 65% 30.26 in 10.0 mi NNW 4.6 mph - N/A   Clear
7:53 PM 61.0 °F - 48.9 °F 64% 30.26 in 10.0 mi Calm Calm - N/A   Clear
8:53 PM 61.0 °F - 48.9 °F 64% 30.27 in 10.0 mi North 3.5 mph - N/A   Clear
9:53 PM 57.0 °F - 46.9 °F 69% 30.26 in 10.0 mi South 3.5 mph - N/A   Clear
10:53 PM 57.0 °F - 48.0 °F 72% 30.26 in 10.0 mi Calm Calm - N/A   Clear
11:53 PM 54.0 °F - 48.0 °F 80% 30.25 in 10.0 mi Calm Calm - N/A   Clear